Location: Street
(51.1247°N, 2.7429°W)
Time: 15:19:54
(UTC+00:00)

SR - Pass Details

Date: 03 December 2020
Orbit: 575 x 880 km, 66.7° (Epoch: 26 January)

Event Time Altitude Azimuth Distance (km) Brightness Sun altitude
Rises 19:38:30 0° 262° (W) 2,884 ? -32.3°
Reaches altitude 10° 19:41:05 10° 276° (W) 2,023 ? -32.7°
Enters shadow 19:44:02 23° 316° (NW) 1,415 ? -33.2°
Maximum altitude 19:44:46 24° 331° (NNW) 1,394 - -33.3°
Drops below altitude 10° 19:48:43 10° 24° (NNE) 2,177 - -33.9°
Sets 19:51:37 0° 39° (NE) 3,162 - -34.3°
